KI5UQA Weather Reports


Display with metric or nautical units.
time (UTC)temp
F
wind
direction
speed
MPH
gust
MPH
rain 1hr
in
rain 24hr
in
rain mn
in
humidity
%
barometer
mb
20260505125004 57 337 6.0 14.0 0.00 0.00 0.00 50 886.9
20260505124004 57 344 7.0 13.0 0.00 0.00 0.00 51 886.6
20260505123004 57 324 5.0 9.0 0.00 0.00 0.00 52 886.7
20260505121004 58 332 5.0 12.0 0.00 0.00 0.00 51 886.3
20260505115004 59 334 7.0 18.0 0.00 0.00 0.00 49 885.9
20260505114004 60 332 6.0 14.0 0.00 0.00 0.00 46 885.6
20260505113004 61 340 9.0 20.0 0.00 0.00 0.00 43 885.6
20260505112004 62 319 10.0 20.0 0.00 0.00 0.00 38 885.5
20260505111004 64 322 10.0 17.0 0.00 0.00 0.00 33 885.2
20260505102004 67 257 6.0 12.0 0.00 0.00 0.00 25 884.4
20260505101004 67 259 6.0 14.0 0.00 0.00 0.00 25 884.2
20260505100004 67 269 6.0 14.0 0.00 0.00 0.00 25 884.1
20260505095003 67 270 5.0 12.0 0.00 0.00 0.00 26 884.0
20260505094004 67 261 7.0 17.0 0.00 0.00 0.00 26 884.0
20260505093004 67 268 6.0 13.0 0.00 0.00 0.00 26 884.0
20260505092004 67 261 6.0 12.0 0.00 0.00 0.00 25 883.8
20260505091004 67 252 7.0 10.0 0.00 0.00 0.00 25 883.9
20260505090004 67 248 6.0 9.0 0.00 0.00 0.00 25 884.0
20260505085004 67 240 5.0 10.0 0.00 0.00 0.00 25 884.0
20260505084004 67 239 5.0 10.0 0.00 0.00 0.00 25 884.0
20260505083004 66 244 5.0 9.0 0.00 0.00 0.00 26 884.0
20260505080004 67 247 5.0 12.0 0.00 0.00 0.00 25 884.1
20260505075003 68 234 6.0 9.0 0.00 0.00 0.00 24 884.2
20260505073003 69 232 5.0 10.0 0.00 0.00 0.00 24 884.3
20260505071004 69 229 5.0 9.0 0.00 0.00 0.00 23 884.4
20260505070004 69 224 5.0 9.0 0.00 0.00 0.00 23 884.6
20260505064004 69 237 2.0 6.0 0.00 0.00 0.00 23 884.5
20260505063004 70 229 3.0 6.0 0.00 0.00 0.00 22 884.6
20260505061004 72 224 5.0 8.0 0.00 0.00 0.00 21 884.6
20260505060004 72 237 5.0 9.0 0.00 0.00 0.00 21 884.5
20260505055003 73 237 5.0 12.0 0.00 0.00 0.00 20 884.6
20260505054006 71 236 6.0 9.0 0.00 0.00 0.00 21 884.7
20260505053005 71 258 3.0 10.0 0.00 0.00 0.00 22 884.7
20260505041005 72 232 4.0 9.0 0.00 0.00 0.00 21 884.8
20260505040006 71 230 5.0 10.0 0.00 0.00 0.00 21 884.8
20260505035005 70 213 3.0 6.0 0.00 0.00 0.00 22 884.8
20260505034006 71 234 2.0 6.0 0.00 0.00 0.00 22 884.8
20260505032005 70 213 2.0 5.0 0.00 0.00 0.00 22 884.7
20260505031005 72 222 2.0 6.0 0.00 0.00 0.00 21 884.6
20260505030005 73 232 3.0 5.0 0.00 0.00 0.00 20 884.6
20260505025006 75 232 3.0 8.0 0.00 0.00 0.00 20 884.5
20260505022005 77 245 6.0 10.0 0.00 0.00 0.00 18 884.3
20260505021005 77 245 6.0 10.0 0.00 0.00 0.00 18 884.3
20260505020006 77 252 6.0 10.0 0.00 0.00 0.00 17 884.2
20260505015005 78 245 6.0 10.0 0.00 0.00 0.00 17 884.1
20260505014005 79 245 7.0 10.0 0.00 0.00 0.00 16 884.0
20260505013005 79 259 6.0 13.0 0.00 0.00 0.00 15 883.9
20260505011006 81 261 6.0 14.0 0.00 0.00 0.00 12 883.9
20260505010005 82 265 9.0 18.0 0.00 0.00 0.00 11 883.8
20260505005006 82 268 7.0 15.0 0.00 0.00 0.00 11 883.9
20260505004006 83 262 9.0 17.0 0.00 0.00 0.00 11 883.9
20260505003006 83 256 9.0 18.0 0.00 0.00 0.00 11 883.8
20260505002006 83 258 10.0 17.0 0.00 0.00 0.00 11 883.9
20260505001006 84 258 8.0 17.0 0.00 0.00 0.00 11 883.9
20260504235005 85 256 8.0 13.0 0.00 0.00 0.00 12 883.9
20260504234005 85 237 7.0 13.0 0.00 0.00 0.00 14 883.8
20260504233005 85 241 9.0 13.0 0.00 0.00 0.00 14 883.8
20260504232005 85 229 7.0 15.0 0.00 0.00 0.00 17 884.0
20260504231005 85 231 4.0 10.0 0.00 0.00 0.00 20 884.1
20260504230005 85 236 5.0 9.0 0.00 0.00 0.00 19 884.2
20260504225006 85 197 7.0 12.0 0.00 0.00 0.00 20 884.2
20260504224005 84 246 7.0 12.0 0.00 0.00 0.00 20 884.4
20260504223006 85 230 6.0 14.0 0.00 0.00 0.00 20 884.6
20260504222006 84 213 9.0 17.0 0.00 0.00 0.00 21 884.6
20260504221005 85 203 8.0 16.0 0.00 0.00 0.00 20 884.6
20260504220005 85 250 7.0 12.0 0.00 0.00 0.00 20 884.8
20260504215006 84 264 6.0 13.0 0.00 0.00 0.00 20 885.1
20260504214005 83 232 7.0 12.0 0.00 0.00 0.00 18 885.1
20260504213005 84 201 7.0 18.0 0.00 0.00 0.00 18 885.1
20260504212005 84 223 7.0 18.0 0.00 0.00 0.00 18 885.3
20260504211005 85 262 7.0 13.0 0.00 0.00 0.00 20 885.4
20260504210005 85 231 7.0 12.0 0.00 0.00 0.00 20 885.6
20260504205006 86 196 6.0 15.0 0.00 0.00 0.00 20 885.5
20260504204005 85 257 6.0 13.0 0.00 0.00 0.00 21 885.7
20260504202005 86 228 5.0 12.0 0.00 0.00 0.00 19 885.9
20260504200005 84 248 4.0 16.0 0.00 0.00 0.00 22 886.4
20260504194005 84 229 6.0 18.0 0.00 0.00 0.00 22 886.5
20260504192005 84 258 6.0 10.0 0.00 0.00 0.00 24 886.6
20260504191005 84 243 7.0 15.0 0.00 0.00 0.00 22 886.7
20260504190005 83 256 7.0 16.0 0.00 0.00 0.00 24 886.8
20260504185005 83 283 10.0 16.0 0.00 0.00 0.00 23 886.9
20260504184005 83 265 7.0 15.0 0.00 0.00 0.00 24 887.1
20260504183005 83 264 9.0 21.0 0.00 0.00 0.00 24 887.2
20260504182005 83 264 9.0 20.0 0.00 0.00 0.00 24 887.0
20260504181005 82 261 8.0 20.0 0.00 0.00 0.00 25 887.6
20260504180005 82 280 12.0 17.0 0.00 0.00 0.00 25 887.8
20260504175005 82 263 13.0 20.0 0.00 0.00 0.00 26 887.9
20260504174005 82 277 7.0 18.0 0.00 0.00 0.00 26 888.1
20260504173005 81 292 13.0 21.0 0.00 0.00 0.00 27 888.1
20260504172005 80 261 10.0 21.0 0.00 0.00 0.00 28 888.3
20260504171005 81 280 8.0 17.0 0.00 0.00 0.00 27 888.5
20260504151005 72 241 7.0 14.0 0.00 0.00 0.00 39 889.1